sat.trackr.live / text

‹ back to catalog

2023-091AS

NORAD 57206 · 2023-091AS

PAYLOAD ACTIVE UNKNOWN

§ Identity

Operator
Country
CIS
Launch date
2023-06-27
Launch site
VOSTO
Launch vehicle
Mass (kg)
RCS (m²)

External: N2YO · Heavens-Above · Gunter

§ Orbital elements

Epoch: 2026-05-25T04:16:31.717632Z

Period
92.33 min
Inclination
97.5052°
Eccentricity
0.0004968
Mean motion
15.59601382 rev/d
Perigee alt
385.4 km
Apogee alt
392.2 km
Semi-major
6,766.9 km
B*
9.0783e-4
RAAN
223.6466°
Arg perigee
133.9336°
Mean anomaly
226.2331°
Rev number
16,180

§ Raw data

2023-091AS1 57206U 23091AS  26145.17814488  .00072679  00000+0  90783-3 0  99942 57206  97.5052 223.6466 0004968 133.9336 226.2331 15.59601382161809

JSON: /api/v1/satellites/57206 · /tle

For live sub-satellite position, see the globe view (requires WebGL).

§ Visibility from observer

Set your observer location to see the next 7 days of passes ≥ 10°. The values pass through the URL so the page stays shareable.

No JS? Fill the form by hand. The geolocation button needs JavaScript.

§ Radio — SatNOGS DB

ModeDescriptionDownlinkUplink
AFSK Mode U - AFSK 1145 TLM 437.050 MHz
SSTV Mode U - SSTV 437.050 MHz
AFSK Possible Mode U 435.800 MHz

3 transmitters · refreshed weekly from db.satnogs.org